Regional Weather Roundup
Issued by NWS Jackson, KY

Home | Current Version | Previous Version | Text Only | Print | Product List | Glossary Off
Versions: 1 2 3 4 5 6 7 8 9 10 11 12 13 14 15 16 17 18 19 20 21 22 23 24 25 26 27

000
ASUS43 KJKL 211010
RWRJKL

EAST KENTUCKY HOURLY WEATHER ROUNDUP
NATIONAL WEATHER SERVICE JACKSON KY
500 AM EST SAT JAN 21 2017

NOTE: "FAIR" INDICATES FEW OR NO CLOUDS BELOW 12,000 FEET WITH
NO SIGNIFICANT WEATHER AND/OR OBSTRUCTIONS TO VISIBILITY.

* THESE REPORTS ARE NOT UNDER NWS QUALITY CONTROL AND MAY NOT
  REPORT WEATHER SUCH AS PRECIPITATION AND FOG.

KYZ079-080-083-085-087-088-110-112-115-119-120-211100
...EASTERN KENTUCKY...

CITY           SKY/WX    TMP DP  RH WIND       PRES   REMARKS
JACKSON        CLOUDY    56  48  74 S3        29.79F
LONDON         MOCLDY    48  45  89 CALM      29.79F
SOMERSET*      PTCLDY    54  48  82 CALM      29.79S
MONTICELLO*    MOCLDY    54  49  83 VRB7      29.79F
WILLIAMSBURG*  PTSUNNY   55  52  88 SE9       29.79F
MIDDLESBORO*   PTCLDY    43  43 100 CALM      29.84S
HARLAN APT*    MOSUNNY   46  46 100 CALM      29.83F
PIKE CO APT*     N/A     55  49  82 SE5       29.81F
MOREHEAD APT*  CLOUDY    50  46  87 SE7       29.78F
ASHLAND*       CLOUDY    43  41  93 SE5       29.77F
$$

KYZ035-036-041-042-044-050-067-078-099-211100
...CENTRAL KENTUCKY...

CITY           SKY/WX    TMP DP  RH WIND       PRES   REMARKS
MT STERLING*   CLOUDY    52  46  82 SW5       29.77F
FLEMING/MASON* CLEAR     52  47  83 S7        29.76F
DANVILLE*      PTCLDY    46  45  93 S3        29.77F
LEXINGTON      PTCLDY    53  47  79 S8        29.75F
FRANKFORT      CLEAR     52  46  80 S6        29.73F
LOUISVILLE     PTCLDY    54  49  83 S8        29.72S
LEBANON*         N/A     57  50  77 S7        29.75R
GLASGOW*       MOCLDY    56  51  82 S5        29.75S
BOWLING GREEN  CLEAR     57  52  83 S3        29.74F
$$

KYZ091>093-OHZ055-061-077-WVZ005-015-034-035-042-211100
...SOUTHERN OHIO/WEST VIRGINIA...

CITY           SKY/WX    TMP DP  RH WIND       PRES   REMARKS
COVINGTON      PTCLDY    50  46  86 S8        29.71F
COLUMBUS       PTCLDY    52  47  83 SE8       29.75F
DAYTON         PTCLDY    45  43  93 SE8       29.72F
WILMINGTON     CLOUDY    49  46  90 S6        29.72F
HUNTINGTON     CLOUDY    47  44  90 CALM      29.78F
CHARLESTON     PTCLDY    47  45  93 CALM      29.81F
PINEVILLE*     PTCLDY    41  37  87 MISG      29.91S
BECKLEY        PTCLDY    49  44  83 S5        29.86F
BLUEFIELD      CLEAR     50  43  77 W6        29.88S
LOGAN CO APT*    N/A     54  48  82 CALM      29.83F
$$

VAZ002-007-008-TNZ017-027-036-066-071-211100
...SOUTHWEST VIRGINIA/EAST TENNESSEE...

CITY           SKY/WX    TMP DP  RH WIND       PRES   REMARKS
WISE*          MOCLDY    54  46  76 S5        29.88S
JONESVILLE*      N/A     48  48 100 CALM      29.86F
ABINGDON*      PTCLDY    49  48  98 E3        29.87F
BRISTOL        PTCLDY    45  44  97 CALM      29.86F
MORRISTOWN*    SUNNY     52  50  93 CALM      29.83F
SEVIERVILLE*   SUNNY     45  45 100 CALM      29.84S
KNOXVILLE      CLOUDY    51  48  89 CALM      29.82F
LAFOLLETTE*    SUNNY     45  45 100 CALM      29.85F FOG
OAK RIDGE      MOCLDY    50  47  89 CALM      29.84F
CROSSVILLE     CLEAR     53  50  89 VRB5      29.82F
NASHVILLE      CLOUDY    58  53  84 S9        29.75F
$$

...KEY TO REMARKS...
VSB - VISIBILITY IN MILES
WCI - WIND CHILL INDEX
HX  - HEAT INDEX

$$




USA.gov is the U.S. government's official web portal to all federal, state and local government web resources and services.